Back to catalog

STARLINK-30339

AliveCommunicationsVLEO
NORAD 57882·PAYLOAD·🇺🇸 United States

Launched Sep 16, 2023 from Cape Canaveral Space Force Station

Loading…

Next Passes (next 24 hours)

TLE

FreshSource: CelesTrak SupGP

Epoch: Sep 14, 2026, 14:08 UTC

1 57882C 23144U   26257.58937500  .00046907  00000+0  16992-2 0  2574
2 57882  43.0005 298.8040 0001406 275.6375  40.6995 15.27550501    16

Track STARLINK-30339 in real time with AllMySat

Download on the App Store